GW4817 Weather Reports


time (UTC)temp
F
wind
direction
speed
knots
gust
knots
rain 1hr
in
rain 24hr
in
rain mn
in
humidity
%
barometer
mb
20260505153350 86 181 4.3 5.2 0.00 0.00 0.00 80 1004.0
20260505152850 86 161 5.2 7.0 0.00 0.00 0.00 80 1004.0
20260505152351 86 158 2.6 2.6 0.00 0.00 0.00 81 1004.0
20260505151851 86 145 2.6 4.3 0.00 0.00 0.00 81 1003.0
20260505151351 86 149 4.3 7.0 0.00 0.00 0.00 81 1003.0
20260505150851 86 168 5.2 7.8 0.00 0.00 0.00 81 1003.0
20260505150351 86 162 3.5 4.3 0.00 0.00 0.00 81 1003.0
20260505140350 86 161 8.7 11.3 0.00 0.00 0.00 79 1003.0
20260505124851 86 194 7.8 9.6 0.00 0.00 0.00 77 1002.0
20260505124357 86 181 9.6 12.2 0.00 0.00 0.00 77 1002.0
20260505123850 86 130 7.0 8.7 0.00 0.00 0.00 77 1002.0
20260505123350 87 155 8.7 8.7 0.00 0.00 0.00 76 1002.0
20260505122851 87 83 7.0 9.6 0.00 0.00 0.00 75 1001.0
20260505122350 87 116 4.3 6.1 0.00 0.00 0.00 75 1001.0
20260505121850 87 134 2.6 4.3 0.00 0.00 0.00 74 1001.0
20260505121351 87 133 2.6 5.2 0.00 0.00 0.00 74 1001.0
20260505120851 87 162 4.3 6.1 0.00 0.00 0.00 74 1001.0
20260505120350 87 140 6.1 9.6 0.00 0.00 0.00 73 1001.0
20260505115850 88 78 0.9 1.7 0.00 0.00 0.00 72 1001.0
20260505115351 88 145 4.3 7.0 0.00 0.00 0.00 70 1001.0
20260505114851 88 176 2.6 2.6 0.00 0.00 0.00 70 1001.0
20260505114351 88 95 1.7 4.3 0.00 0.00 0.00 69 1001.0
20260505113851 88 180 11.3 13.9 0.00 0.00 0.00 69 1001.0
20260505113351 88 126 6.1 7.8 0.00 0.00 0.00 68 1001.0
20260505112851 88 178 9.6 11.3 0.00 0.00 0.00 68 1001.0
20260505112350 89 180 4.3 6.1 0.00 0.00 0.00 68 1001.0
20260505111851 89 133 1.7 1.7 0.00 0.00 0.00 67 1001.0
20260505111352 89 157 1.7 1.7 0.00 0.00 0.00 69 1001.0
20260505110851 89 145 5.2 7.0 0.00 0.00 0.00 69 1001.0
20260505110350 89 207 4.3 5.2 0.00 0.00 0.00 68 1001.0
20260505101850 91 190 6.1 7.8 0.00 0.00 0.00 63 1001.0
20260505101351 91 145 6.1 7.0 0.00 0.00 0.00 63 1001.0
20260505100850 91 148 4.3 7.0 0.00 0.00 0.00 62 1002.0
20260505100350 91 180 6.1 7.0 0.00 0.00 0.00 60 1002.0
20260505095851 91 142 4.3 7.0 0.00 0.00 0.00 61 1001.0
20260505095352 91 49 1.7 2.6 0.00 0.00 0.00 62 1001.0
20260505094850 91 140 5.2 7.0 0.00 0.00 0.00 60 1002.0
20260505094351 91 142 7.8 9.6 0.00 0.00 0.00 61 1002.0
20260505093851 92 131 9.6 9.6 0.00 0.00 0.00 60 1002.0
20260505093351 92 169 7.0 9.6 0.00 0.00 0.00 60 1002.0
20260505092850 91 138 7.8 9.6 0.00 0.00 0.00 60 1002.0
20260505092351 91 121 7.0 7.8 0.00 0.00 0.00 61 1002.0
20260505091851 91 173 4.3 5.2 0.00 0.00 0.00 60 1002.0
20260505091351 91 98 3.5 5.2 0.00 0.00 0.00 61 1002.0
20260505090851 92 104 7.0 9.6 0.00 0.00 0.00 60 1002.0
20260505090351 91 190 3.5 5.2 0.00 0.00 0.00 61 1002.0
20260505085850 92 167 6.1 7.8 0.00 0.00 0.00 61 1002.0
20260505085350 92 180 8.7 9.6 0.00 0.00 0.00 60 1002.0
20260505084850 92 99 6.1 8.7 0.00 0.00 0.00 60 1002.0
20260505084351 92 157 3.5 5.2 0.00 0.00 0.00 60 1002.0
20260505083851 91 216 2.6 4.3 0.00 0.00 0.00 59 1002.0
20260505083356 92 68 5.2 6.1 0.00 0.00 0.00 58 1002.0
20260505082850 93 148 6.1 7.8 0.00 0.00 0.00 57 1002.0
20260505082350 93 107 4.3 6.1 0.00 0.00 0.00 56 1003.0
20260505081851 93 190 4.3 5.2 0.00 0.00 0.00 55 1003.0
20260505081354 93 157 7.0 8.7 0.00 0.00 0.00 55 1002.0
20260505080851 93 140 3.5 7.0 0.00 0.00 0.00 55 1002.0
20260505080351 93 129 4.3 5.2 0.00 0.00 0.00 55 1003.0
20260505075850 93 201 4.3 7.0 0.00 0.00 0.00 55 1003.0
20260505075350 94 84 3.5 5.2 0.00 0.00 0.00 54 1003.0
20260505074851 93 198 8.7 9.6 0.00 0.00 0.00 55 1003.0
20260505074352 93 146 5.2 7.8 0.00 0.00 0.00 55 1003.0
20260505073852 93 168 7.0 7.8 0.00 0.00 0.00 55 1003.0
20260505073353 94 147 4.3 5.2 0.00 0.00 0.00 54 1003.0
20260505072851 94 193 4.3 5.2 0.00 0.00 0.00 55 1003.0
20260505072352 94 93 1.7 2.6 0.00 0.00 0.00 54 1003.0
20260505071852 94 176 4.3 5.2 0.00 0.00 0.00 53 1003.0
20260505071350 95 161 1.7 2.6 0.00 0.00 0.00 53 1003.0
20260505070851 95 198 5.2 7.8 0.00 0.00 0.00 53 1003.0
20260505070351 95 190 4.3 7.0 0.00 0.00 0.00 53 1003.0
20260505065851 95 96 2.6 2.6 0.00 0.00 0.00 51 1003.0
20260505065351 95 184 5.2 6.1 0.00 0.00 0.00 52 1004.0
20260505064851 95 147 4.3 6.1 0.00 0.00 0.00 53 1003.0
20260505064351 95 72 0.9 2.6 0.00 0.00 0.00 52 1003.0
20260505063851 95 145 1.7 1.7 0.00 0.00 0.00 54 1004.0
20260505063351 95 42 1.7 4.3 0.00 0.00 0.00 53 1004.0
20260505062852 96 148 4.3 5.2 0.00 0.00 0.00 49 1004.0
20260505062352 95 177 1.7 1.7 0.00 0.00 0.00 49 1004.0
20260505061852 96 164 0.9 1.7 0.00 0.00 0.00 49 1003.0
20260505061351 96 196 1.7 2.6 0.00 0.00 0.00 49 1004.0
20260505060853 95 184 4.3 5.2 0.00 0.00 0.00 49 1004.0
20260505060352 95 140 1.7 1.7 0.00 0.00 0.00 50 1004.0
20260505055851 95 179 0.9 1.7 0.00 0.00 0.00 50 1004.0
20260505055351 95 196 0.0 0.9 0.00 0.00 0.00 50 1004.0
20260505054851 95 107 1.7 1.7 0.00 0.00 0.00 51 1004.0
20260505054350 95 122 2.6 2.6 0.00 0.00 0.00 50 1004.0
20260505053851 94 170 0.0 0.0 0.00 0.00 0.00 51 1004.0
20260505053354 95 170 2.6 2.6 0.00 0.00 0.00 51 1004.0
20260505052850 95 199 0.0 0.9 0.00 0.00 0.00 49 1004.0
20260505052351 95 294 0.9 0.9 0.00 0.00 0.00 49 1005.0
20260505051850 96 260 0.0 0.0 0.00 0.00 0.00 47 1004.0
20260505051351 96 89 0.0 0.0 0.00 0.00 0.00 49 1004.0
20260505050850 95 198 0.0 0.0 0.00 0.00 0.00 50 1004.0
20260505050350 94 159 0.0 0.0 0.00 0.00 0.00 50 1004.0
20260505041352 90 237 0.9 0.9 0.00 0.00 0.00 56 1005.0
20260505040850 90 216 2.6 4.3 0.00 0.00 0.00 55 1004.0
20260505040350 90 185 3.5 4.3 0.00 0.00 0.00 55 1004.0
20260505035851 89 206 2.6 4.3 0.00 0.00 0.00 58 1004.0
20260505035350 90 185 0.9 0.9 0.00 0.00 0.00 58 1004.0
20260505034851 89 182 1.7 2.6 0.00 0.00 0.00 59 1004.0
20260505034351 89 207 1.7 1.7 0.00 0.00 0.00 58 1004.0
20260505033850 89 203 1.7 2.6 0.00 0.00 0.00 59 1004.0
20260505033351 89 161 1.7 1.7 0.00 0.00 0.00 61 1004.0
20260505032851 90 291 4.3 5.2 0.00 0.00 0.00 59 1004.0
20260505032351 90 236 0.9 0.9 0.00 0.00 0.00 59 1004.0
20260505031851 90 265 2.6 2.6 0.00 0.00 0.00 59 1004.0
20260505031351 90 244 0.9 1.7 0.00 0.00 0.00 58 1004.0
20260505030850 89 166 0.0 0.0 0.00 0.00 0.00 60 1004.0
20260505030350 89 258 2.6 2.6 0.00 0.00 0.00 59 1004.0
20260505025851 90 298 2.6 2.6 0.00 0.00 0.00 57 1004.0
20260505025351 91 280 0.9 0.9 0.00 0.00 0.00 57 1004.0
20260505024850 91 143 0.9 0.9 0.00 0.00 0.00 56 1004.0
20260505024350 90 160 0.0 0.0 0.00 0.00 0.00 58 1004.0
20260505023851 90 269 2.6 4.3 0.00 0.00 0.00 57 1004.0
20260505023350 91 246 2.6 2.6 0.00 0.00 0.00 56 1004.0
20260505022851 91 247 0.0 0.9 0.00 0.00 0.00 55 1004.0
20260505022351 90 218 0.0 0.0 0.00 0.00 0.00 55 1004.0
20260505021851 91 234 0.0 0.9 0.00 0.00 0.00 54 1004.0
20260505021350 90 135 0.0 0.9 0.00 0.00 0.00 56 1003.0
20260505020852 90 170 0.0 0.0 0.00 0.00 0.00 56 1003.0
20260505020350 90 146 0.0 0.9 0.00 0.00 0.00 55 1003.0
20260505015850 90 130 0.0 0.0 0.00 0.00 0.00 56 1004.0
20260505015350 88 142 0.0 0.0 0.00 0.00 0.00 58 1003.0
20260505014851 88 82 0.9 0.9 0.00 0.00 0.00 57 1003.0
20260505014351 88 242 0.9 0.9 0.00 0.00 0.00 58 1003.0
20260505013851 87 160 0.0 0.0 0.00 0.00 0.00 59 1003.0
20260505013351 86 175 0.0 0.0 0.00 0.00 0.00 60 1003.0
20260505012851 86 177 0.0 0.0 0.00 0.00 0.00 61 1003.0
20260505012350 85 189 0.0 0.0 0.00 0.00 0.00 62 1003.0
20260505011850 85 158 1.7 1.7 0.00 0.00 0.00 62 1003.0
20260505011350 85 182 0.9 0.9 0.00 0.00 0.00 63 1003.0
20260505010851 85 170 0.0 0.0 0.00 0.00 0.00 63 1003.0
20260505010350 85 179 0.0 0.0 0.00 0.00 0.00 63 1003.0
20260505005851 85 172 0.0 0.0 0.00 0.00 0.00 63 1003.0
20260505005351 85 172 0.0 0.0 0.00 0.00 0.00 63 1003.0
20260505004851 85 175 0.0 0.0 0.00 0.00 0.00 63 1003.0
20260505004350 84 173 0.9 0.9 0.00 0.00 0.00 64 1003.0
20260505003850 84 177 0.0 0.0 0.00 0.00 0.00 64 1002.0
20260505003351 84 178 0.9 0.9 0.00 0.00 0.00 64 1003.0
20260505002851 84 190 0.9 0.9 0.00 0.00 0.00 64 1002.0
20260505002351 84 184 0.0 0.0 0.00 0.00 0.00 64 1002.0
20260505001850 84 184 0.9 0.9 0.00 0.00 0.00 64 1003.0
20260505001350 84 190 0.0 0.0 0.00 0.00 0.00 64 1003.0
20260505000850 84 169 0.0 0.0 0.00 0.00 0.00 64 1003.0
20260505000351 84 193 0.9 0.9 0.00 0.00 0.00 65 1002.0
20260504235851 84 214 1.7 1.7 0.00 0.00 0.00 65 1003.0
20260504235350 84 153 0.0 0.0 0.00 0.00 0.00 65 1002.0
20260504234851 84 216 1.7 1.7 0.00 0.00 0.00 65 1003.0
20260504234351 84 215 0.0 0.9 0.00 0.00 0.00 66 1002.0
20260504233851 84 161 0.0 0.0 0.00 0.00 0.00 65 1002.0
20260504233351 84 174 0.9 0.9 0.00 0.00 0.00 66 1003.0
20260504232851 84 182 0.0 0.0 0.00 0.00 0.00 66 1002.0
20260504232351 84 284 2.6 2.6 0.00 0.00 0.00 66 1003.0
20260504231852 84 203 0.9 1.7 0.00 0.00 0.00 67 1003.0
20260504231351 84 216 1.7 2.6 0.00 0.00 0.00 67 1002.0
20260504230851 84 258 0.9 0.9 0.00 0.00 0.00 68 1002.0
20260504230351 84 213 0.9 1.7 0.00 0.00 0.00 68 1002.0
20260504225851 84 179 0.9 0.9 0.00 0.00 0.00 68 1002.0
20260504225353 84 217 1.7 2.6 0.00 0.00 0.00 68 1002.0
20260504224851 84 200 0.9 1.7 0.00 0.00 0.00 68 1002.0
20260504224350 84 252 1.7 1.7 0.00 0.00 0.00 68 1002.0
20260504223850 84 176 0.0 0.0 0.00 0.00 0.00 69 1002.0
20260504223351 84 162 0.0 0.0 0.00 0.00 0.00 69 1002.0
20260504222850 84 233 0.9 0.9 0.00 0.00 0.00 69 1002.0
20260504222350 84 210 2.6 2.6 0.00 0.00 0.00 69 1002.0
20260504221851 84 190 1.7 1.7 0.00 0.00 0.00 70 1002.0
20260504221352 83 205 0.9 0.9 0.00 0.00 0.00 70 1002.0
20260504220403 83 169 0.0 0.0 0.00 0.00 0.00 71 1002.0
20260504215850 83 167 0.0 0.9 0.00 0.00 0.00 71 1003.0
20260504215352 83 202 2.6 2.6 0.00 0.00 0.00 71 1003.0
20260504214853 83 314 0.9 1.7 0.00 0.00 0.00 72 1003.0
20260504214351 83 230 2.6 2.6 0.00 0.00 0.00 72 1003.0
20260504213851 83 227 0.0 0.9 0.00 0.00 0.00 72 1003.0
20260504213351 83 281 2.6 2.6 0.00 0.00 0.00 72 1003.0
20260504212851 83 226 0.9 1.7 0.00 0.00 0.00 73 1003.0
20260504212351 83 196 0.0 0.0 0.00 0.00 0.00 73 1003.0
20260504211852 83 203 4.3 6.1 0.00 0.00 0.00 72 1003.0
20260504211352 84 267 2.6 5.2 0.00 0.00 0.00 72 1003.0
20260504210851 83 245 0.9 1.7 0.00 0.00 0.00 72 1003.0
20260504210352 83 276 1.7 2.6 0.00 0.00 0.00 72 1003.0
20260504205851 83 284 2.6 4.3 0.00 0.00 0.00 72 1003.0
20260504205352 84 257 7.8 9.6 0.00 0.00 0.00 71 1003.0
20260504204851 84 297 2.6 4.3 0.00 0.00 0.00 71 1003.0
20260504204352 85 315 4.3 7.8 0.00 0.00 0.00 70 1003.0
20260504203852 85 154 0.0 0.0 0.00 0.00 0.00 70 1003.0
20260504203352 86 8 2.6 4.3 0.00 0.00 0.00 69 1003.0
20260504202853 86 260 0.0 0.9 0.00 0.00 0.00 69 1003.0
20260504202353 86 287 2.6 4.3 0.00 0.00 0.00 69 1003.0
20260504201851 86 323 2.6 4.3 0.00 0.00 0.00 70 1003.0
20260504201351 86 114 2.6 2.6 0.00 0.00 0.00 70 1003.0
20260504200851 86 267 0.9 1.7 0.00 0.00 0.00 70 1003.0
20260504200351 86 282 0.9 1.7 0.00 0.00 0.00 70 1002.0
20260504195854 86 182 1.7 1.7 0.00 0.00 0.00 70 1003.0
20260504195350 86 186 1.7 1.7 0.00 0.00 0.00 70 1003.0
20260504194850 86 245 3.5 4.3 0.00 0.00 0.00 69 1002.0
20260504194352 86 247 2.6 2.6 0.00 0.00 0.00 69 1003.0
20260504193850 86 185 0.0 0.9 0.00 0.00 0.00 69 1003.0
20260504193352 86 189 0.9 1.7 0.00 0.00 0.00 69 1003.0
20260504192851 86 157 2.6 4.3 0.00 0.00 0.00 69 1003.0
20260504192351 86 189 0.9 1.7 0.00 0.00 0.00 70 1003.0
20260504191854 86 175 3.5 4.3 0.00 0.00 0.00 70 1003.0
20260504191351 86 197 0.9 1.7 0.00 0.00 0.00 70 1003.0
20260504190850 86 198 0.9 1.7 0.00 0.00 0.00 70 1003.0
20260504190353 86 156 1.7 2.6 0.00 0.00 0.00 70 1003.0
20260504185851 86 215 2.6 2.6 0.00 0.00 0.00 69 1003.0
20260504185353 86 176 1.7 2.6 0.00 0.00 0.00 69 1003.0
20260504184850 86 166 1.7 2.6 0.00 0.00 0.00 69 1003.0
20260504184353 86 164 1.7 1.7 0.00 0.00 0.00 69 1003.0
20260504183851 86 188 0.9 1.7 0.00 0.00 0.00 69 1003.0
20260504183350 86 214 2.6 5.2 0.00 0.00 0.00 69 1003.0
20260504182851 86 209 3.5 4.3 0.00 0.00 0.00 69 1003.0
20260504182351 86 222 3.5 4.3 0.00 0.00 0.00 69 1003.0
20260504181852 86 242 1.7 1.7 0.00 0.00 0.00 69 1003.0
20260504181351 86 225 5.2 6.1 0.00 0.00 0.00 69 1003.0
20260504180853 87 209 3.5 5.2 0.00 0.00 0.00 69 1003.0
20260504180351 87 228 4.3 7.0 0.00 0.00 0.00 69 1003.0
20260504175851 87 214 4.3 7.8 0.00 0.00 0.00 69 1003.0
20260504175351 87 217 2.6 4.3 0.00 0.00 0.00 69 1003.0
20260504174851 87 256 4.3 6.1 0.00 0.00 0.00 70 1003.0
20260504174351 87 189 2.6 4.3 0.00 0.00 0.00 70 1003.0
20260504173851 87 285 1.7 2.6 0.00 0.00 0.00 71 1003.0
20260504173352 87 218 4.3 7.0 0.00 0.00 0.00 71 1003.0
20260504172852 87 188 4.3 5.2 0.00 0.00 0.00 71 1003.0
20260504172352 87 195 2.6 5.2 0.00 0.00 0.00 71 1003.0
20260504171851 87 196 4.3 7.0 0.00 0.00 0.00 71 1003.0
20260504171352 87 170 1.7 2.6 0.00 0.00 0.00 71 1003.0
20260504170853 87 219 6.1 7.0 0.00 0.00 0.00 70 1003.0
20260504170351 87 204 2.6 5.2 0.00 0.00 0.00 70 1003.0
20260504160351 87 174 6.1 7.0 0.00 0.00 0.00 78 1003.0